Theta_e
320 313 310 309 296 295 288 293 297 299 298 301 302 303 303 305 304 299 321 330 332 334 340 344 347 347 347 347 346 345 345 345 345 344 344 343 342 341 339 337 338 336 333 335 333 332 332 332 331
315 312 309 303 290 284 283 294 297 296 300 301 301 304 303 303 321 317 320 329 334 336 340 342 344 346 347 347 346 346 345 345 344 342 342 341 340 338 336 335 335 336 333 335 333 331 331 330 329
309 310 303 298 289 284 284 292 294 296 298 298 301 304 311 314 319 319 321 331 335 336 339 341 343 347 347 346 345 346 345 345 342 341 340 339 337 336 334 334 335 335 334 333 332 331 329 328 327
305 306 300 293 288 292 291 291 293 295 298 301 299 299 317 317 317 326 332 333 333 334 337 339 344 347 346 345 345 345 344 344 340 340 340 338 336 336 336 335 334 332 332 331 331 329 328 328 328
301 298 290 287 287 291 293 292 292 293 294 297 297 296 312 314 313 320 331 333 329 330 333 338 343 345 345 345 345 345 343 343 343 342 341 338 338 338 336 333 332 332 331 331 330 328 328 327 327
295 293 284 282 285 290 290 293 292 292 294 296 295 293 310 309 306 313 330 330 331 328 331 337 336 340 342 344 343 344 343 342 341 342 341 339 338 338 336 333 334 332 331 330 329 327 327 327 327
292 287 283 282 284 287 291 294 291 292 292 294 296 297 306 304 305 307 327 330 329 328 332 335 336 337 336 339 339 341 341 341 339 340 339 338 337 336 335 333 331 332 331 329 328 327 327 326 327
292 289 284 282 283 285 292 294 294 294 292 297 300 297 295 302 304 306 323 331 330 329 330 331 333 336 339 337 333 335 337 337 337 336 334 332 331 331 331 329 330 330 331 329 328 327 327 327 327
295 287 283 284 286 287 293 292 296 297 293 294 298 298 301 304 305 307 307 310 322 331 329 330 331 334 335 336 333 331 332 332 332 332 329 327 325 325 324 324 327 328 331 330 328 328 328 328 328
290 284 285 290 290 290 293 292 293 293 293 294 296 300 303 303 302 302 303 305 309 313 324 329 331 332 334 337 334 334 332 331 332 333 331 328 322 321 320 319 323 325 327 329 330 329 329 325 318
291 285 291 292 295 295 294 293 294 292 290 292 293 296 299 299 299 299 301 305 307 310 317 325 332 332 331 332 334 333 331 329 330 330 329 323 320 317 317 317 318 320 318 319 322 320 319 317 316
289 293 294 295 296 295 293 294 292 293 292 297 296 297 297 296 297 298 300 303 306 307 311 314 322 331 331 332 333 333 332 330 328 327 325 320 317 316 315 315 316 317 318 317 316 314 314 313 314
290 291 295 295 295 294 296 292 292 291 295 296 297 296 295 296 297 298 300 303 305 306 308 310 315 319 331 330 332 332 331 329 328 326 323 320 318 316 315 315 315 315 316 315 314 313 312 312 314
293 293 293 295 294 295 293 292 293 293 295 295 295 294 295 296 296 297 299 301 303 306 306 309 311 315 322 330 330 331 331 329 327 326 323 321 319 317 316 315 315 314 315 315 314 313 313 313 315
294 289 290 292 294 293 293 289 290 293 294 292 292 294 296 296 297 297 299 300 303 305 306 307 309 314 319 328 329 331 331 329 326 325 323 322 320 318 317 316 315 316 315 315 314 313 314 314 316
288 287 283 289 293 294 290 283 291 293 291 291 293 296 296 296 298 299 303 304 306 305 305 306 309 311 314 321 329 330 331 329 328 325 324 322 321 319 316 316 315 316 315 315 314 314 314 316 315
285 279 281 285 292 292 289 283 291 293 291 290 293 295 295 296 298 300 303 305 306 306 306 306 308 309 313 320 329 329 329 328 327 326 324 323 322 320 319 318 317 316 315 314 314 314 314 313 313
278 279 282 281 287 289 286 287 289 291 291 290 293 294 295 296 297 301 302 303 305 305 307 308 308 309 313 321 328 329 329 327 327 326 325 324 322 320 318 317 316 316 314 313 313 313 314 314 314
285 284 280 284 289 287 286 288 289 289 289 291 292 292 293 295 299 300 301 301 302 303 303 305 306 307 311 320 325 325 324 326 326 326 325 324 323 321 319 317 316 315 315 315 315 314 314 314 316
285 281 280 284 288 289 287 285 287 288 289 292 292 292 293 294 296 297 298 299 299 300 301 303 305 307 310 314 324 326 325 326 327 326 325 325 323 322 320 318 316 316 315 315 315 315 314 315 317
282 279 276 282 286 289 284 279 282 286 289 291 293 294 294 294 294 295 296 296 298 298 299 301 303 306 309 311 315 323 323 324 324 323 323 323 323 322 321 319 318 317 317 316 315 315 315 314 315
281 286 284 284 282 274 282 272 274 281 285 288 289 291 291 293 294 294 295 295 296 297 298 300 303 305 308 311 312 319 316 318 320 322 322 322 323 322 322 321 320 319 319 319 320 319 317 316 315
282 288 285 283 282 284 276 270 274 281 280 284 287 288 289 291 292 293 293 294 296 297 297 299 302 305 306 308 311 319 318 317 321 321 320 320 320 321 322 322 321 321 321 319 316 315 314 314 313
287 285 283 283 281 271 272 272 273 274 279 283 286 287 287 289 290 292 293 294 294 296 297 298 299 302 305 305 307 308 310 313 309 310 309 309 310 311 313 314 315 315 313 313 312 312 311 312 311
285 280 270 269 268 272 277 274 277 280 285 286 285 284 286 287 288 290 291 291 292 293 295 296 298 298 302 303 304 306 306 306 306 306 307 307 307 308 309 311 311 312 312 312 313 312 311 310 310
283 281 272 267 269 272 279 274 278 284 286 287 284 283 285 285 286 288 290 291 291 292 293 294 296 297 299 301 302 303 305 305 305 305 306 306 306 307 308 308 309 309 310 311 311 310 309 310 309
282 279 282 278 271 273 275 279 283 284 283 282 282 282 283 284 285 286 288 289 290 290 291 292 294 295 297 298 299 300 302 302 302 304 305 304 306 306 305 306 305 306 306 306 306 305 305 305 304
283 285 277 276 266 267 272 276 277 282 283 283 281 281 282 283 284 285 286 287 288 289 290 292 293 293 295 296 297 297 297 298 299 299 299 300 301 302 302 302 302 302 302 303 302 301 301 299 298
282 281 281 280 278 273 271 273 281 282 284 283 281 282 282 283 284 284 285 286 287 288 289 290 291 292 293 294 294 295 295 295 295 295 296 296 297 297 297 297 297 297 297 297 297 296 296 295 294
282 281 281 275 273 276 277 275 284 283 285 284 281 283 283 283 284 284 284 285 285 286 287 288 289 290 291 292 293 293 293 293 293 292 293 294 294 294 294 294 293 293 293 293 293 292 291 291 289
Wind_Speed
8 6 1 5 5 5 3 6 2 5 7 5 4 4 5 1 1 4 6 9 2 9 9 10 15 16 16 15 14 14 15 16 16 15 16 15 15 14 13 12 10 10 10 11 10 10 10 10 9
4 3 5 3 6 3 6 5 5 3 8 10 6 1 2 1 4 5 5 3 5 10 8 9 13 16 16 16 15 14 15 17 16 16 15 14 13 13 12 12 11 10 11 11 10 9 9 8 7
2 2 5 5 4 5 4 2 7 7 9 5 6 3 4 8 11 6 7 4 5 8 6 5 11 15 16 15 15 14 14 13 15 15 15 14 13 13 13 12 11 11 11 10 9 9 7 7 6
2 5 5 5 5 4 2 5 5 10 6 9 6 2 5 12 9 9 10 4 4 4 6 7 12 14 15 15 14 14 13 14 16 15 15 15 14 13 12 12 11 11 11 9 8 8 7 5 5
5 4 4 2 3 3 1 3 5 6 5 7 9 8 4 5 12 12 8 5 2 3 3 6 11 13 15 15 15 14 14 14 16 14 14 14 13 12 11 11 12 11 10 9 7 6 5 4 2
5 3 4 1 2 1 3 6 4 5 5 7 7 6 2 2 21 16 7 5 3 1 2 4 8 12 12 13 13 13 13 14 15 16 15 13 13 13 12 13 11 10 9 8 6 5 5 3 1
6 4 1 1 3 1 4 9 3 5 7 5 6 4 5 16 20 15 7 4 1 1 2 3 3 7 10 10 11 10 12 13 14 14 15 12 12 11 11 10 12 10 9 8 7 5 3 3 2
5 5 2 2 1 3 4 9 4 5 4 7 8 7 7 17 19 13 8 5 4 2 3 3 4 4 6 6 9 9 10 10 12 12 12 12 10 9 9 9 10 10 9 7 7 6 4 4 3
3 5 1 1 3 5 5 6 5 5 4 4 6 5 7 10 12 15 11 11 11 5 4 4 5 5 5 6 8 10 10 10 11 12 11 10 5 6 8 7 10 11 8 7 7 7 6 4 4
6 4 2 0 1 2 4 3 6 7 8 7 8 10 11 12 11 12 14 12 11 13 12 6 6 8 7 7 6 7 7 5 6 7 9 6 6 5 5 7 11 11 8 6 6 7 6 4 2
2 3 1 2 2 2 4 6 4 5 4 2 9 14 15 13 14 14 11 9 9 10 10 13 8 9 8 7 5 4 4 4 5 9 9 6 5 4 3 3 3 3 3 2 2 2 2 3 3
5 2 1 2 3 3 4 4 4 5 2 7 8 8 8 10 12 13 13 12 11 12 10 12 13 11 12 8 6 8 6 6 5 7 9 5 4 4 4 3 4 4 3 4 3 2 3 5 5
4 1 2 3 1 2 3 5 3 4 5 6 7 10 12 12 13 12 11 10 11 11 13 11 11 13 11 10 7 7 7 6 7 7 6 5 5 6 4 4 4 4 4 4 4 4 4 4 5
1 2 2 3 5 2 4 3 2 3 8 9 10 11 11 13 12 12 12 15 13 14 14 13 12 12 13 9 10 9 7 8 7 7 8 8 6 5 6 5 5 4 4 4 4 4 4 4 3
2 2 2 3 5 2 1 1 4 6 7 7 9 10 14 15 13 12 12 12 13 12 15 15 14 12 11 13 10 10 9 8 9 9 8 9 7 7 7 5 4 4 4 5 3 4 3 3 3
4 5 3 2 7 3 3 3 2 7 8 9 9 15 13 14 16 13 15 15 15 15 15 16 13 14 13 12 9 9 10 10 8 7 5 11 11 9 6 5 4 4 4 4 3 3 3 4 4
6 2 2 7 2 4 4 2 3 5 6 8 11 13 12 14 16 15 16 16 14 13 12 16 16 15 15 13 10 10 11 11 10 9 9 12 11 11 9 7 5 6 4 4 4 4 3 3 4
1 2 3 3 3 2 3 4 2 6 6 9 11 12 13 14 16 16 17 16 17 16 13 13 13 15 15 12 9 8 8 8 9 10 9 11 10 11 9 6 6 5 4 4 3 5 3 4 4
4 2 2 4 4 4 2 5 5 7 6 11 13 15 14 15 15 16 15 14 15 16 17 15 14 14 11 9 7 8 7 8 9 9 12 12 10 11 10 6 6 5 6 7 6 4 5 3 3
2 2 4 5 3 0 5 6 2 4 3 7 10 11 13 15 16 16 16 17 16 16 17 16 15 13 10 8 4 5 4 6 9 9 11 11 11 11 9 8 8 8 5 5 5 5 2 3 3
3 4 2 3 5 1 7 5 4 3 3 6 6 8 10 13 15 16 18 17 17 18 19 17 16 13 9 8 6 1 2 3 7 8 8 9 9 10 8 6 5 6 4 5 5 5 6 4 3
3 4 3 2 4 1 4 6 5 4 5 5 6 8 9 11 13 15 16 17 18 18 17 18 16 11 7 6 5 6 4 4 3 2 2 5 10 8 6 5 4 4 4 4 4 3 1 2 3
4 4 2 1 2 2 4 4 7 4 4 6 7 7 8 7 9 13 16 15 15 16 16 16 16 10 11 10 7 1 6 3 4 5 4 6 6 7 6 5 5 4 3 5 5 7 8 6 4
1 0 4 3 2 2 4 5 7 2 5 4 4 7 7 9 10 11 12 13 14 15 16 18 19 16 16 17 16 13 9 11 12 11 9 10 9 8 11 12 10 9 9 11 8 9 11 8 8
3 4 4 7 5 6 3 2 10 5 5 4 3 6 8 7 8 11 13 14 14 15 17 16 18 20 17 19 18 15 16 18 18 13 10 12 11 10 12 14 15 11 11 10 7 9 7 8 5
2 3 5 5 2 6 1 5 6 5 4 4 2 2 5 7 6 7 10 11 11 13 14 15 16 15 17 18 19 17 16 12 15 11 12 12 10 10 13 13 14 12 10 8 8 6 5 5 5
2 2 2 4 2 2 4 6 5 4 4 3 3 0 4 6 7 7 8 8 10 10 11 11 13 12 14 16 15 16 16 17 14 13 13 10 10 9 11 12 12 9 8 8 7 6 6 7 6
1 4 3 3 1 5 5 5 6 6 9 6 5 5 3 3 5 6 6 7 7 8 9 11 12 12 13 13 14 14 14 13 12 11 14 12 11 11 11 10 9 7 7 7 7 5 5 7 5
2 1 2 2 4 3 4 7 6 8 10 10 8 6 5 3 3 5 6 6 6 6 9 10 10 11 13 12 11 11 10 10 11 11 9 9 9 9 10 9 8 9 9 9 8 7 7 7 6
1 5 5 4 4 3 1 10 1 4 8 9 8 7 5 4 3 3 4 5 6 7 7 8 9 10 9 8 9 9 10 9 10 9 8 8 10 10 10 9 10 8 8 8 8 8 7 7 8
Wind_Direction
331 321 24 41 56 67 261 261 294 348 346 254 264 218 258 356 216 218 326 183 151 152 160 167 163 168 161 157 153 154 153 154 149 150 150 145 142 139 139 139 142 143 133 130 128 132 127 121 121
328 327 44 83 90 72 271 319 347 335 277 300 289 192 289 332 20 334 347 262 167 152 154 162 162 166 163 158 159 160 160 156 154 153 147 148 146 146 146 147 153 133 142 138 140 135 129 129 126
275 14 86 102 119 177 212 357 278 286 291 327 340 33 24 346 340 325 321 169 150 149 141 153 162 165 164 161 166 168 170 162 159 161 155 155 154 152 152 152 167 148 144 152 145 144 142 134 126
38 19 36 103 200 240 210 311 306 323 359 29 329 28 59 58 335 318 323 112 128 143 138 152 166 168 168 167 171 174 180 172 178 170 163 161 160 160 164 159 165 160 154 156 155 155 149 142 134
29 50 72 92 256 257 292 357 321 352 329 340 341 346 65 10 358 358 358 5 124 142 141 156 171 175 172 172 176 183 187 187 175 171 168 166 166 165 167 171 173 174 171 162 164 164 156 150 149
40 87 60 264 278 300 14 344 316 14 312 314 24 340 123 7 7 348 339 345 13 129 154 185 183 168 177 176 185 188 192 198 192 176 167 168 167 169 162 179 170 169 178 165 174 183 170 167 218
100 75 121 146 289 6 344 328 29 325 302 360 320 353 284 1 344 339 330 321 78 115 197 201 211 191 171 179 184 197 195 203 201 183 164 169 167 172 175 163 180 175 180 178 186 193 208 203 233
100 91 98 352 331 338 330 330 346 13 302 301 338 15 341 332 332 338 341 9 328 242 210 219 224 199 192 189 186 196 200 212 200 186 168 160 171 169 156 179 185 188 174 192 202 201 226 251 263
113 61 120 357 10 309 332 357 328 316 319 20 15 37 311 321 341 5 9 3 346 305 253 234 224 218 194 190 195 196 200 197 188 171 168 162 164 181 179 178 185 202 182 202 217 228 231 255 292
73 88 142 113 151 295 308 4 323 359 12 342 343 340 342 348 2 8 355 347 348 342 322 257 224 226 200 204 202 194 190 184 175 169 177 165 167 176 171 170 194 207 199 191 226 243 259 281 297
67 119 210 234 328 7 323 11 18 2 14 333 319 328 342 347 354 353 346 331 323 321 323 319 277 243 208 218 201 196 190 171 170 172 176 162 158 171 166 158 173 204 180 205 253 298 304 286 279
99 70 59 326 331 12 345 298 106 70 291 303 309 316 330 346 345 339 330 324 324 323 313 314 319 267 239 207 198 199 187 181 179 181 171 160 165 171 175 168 179 181 181 196 213 237 264 269 259
70 41 323 331 300 96 289 343 193 48 332 329 328 353 354 344 332 327 315 309 315 315 314 307 307 304 257 226 198 204 193 190 185 176 166 170 175 182 168 182 179 194 182 192 205 223 238 250 257
89 21 287 328 345 107 35 348 140 358 345 346 359 351 345 338 325 320 323 320 318 315 309 305 299 293 295 241 212 195 195 190 179 195 177 175 186 189 182 183 190 197 193 199 199 213 229 246 243
90 92 335 347 354 21 330 335 45 337 328 333 339 338 345 336 333 332 315 307 304 309 304 300 297 287 284 268 239 188 193 194 196 193 172 174 186 193 189 184 191 205 195 203 216 230 224 246 239
51 55 14 329 3 347 43 300 24 340 349 338 346 349 340 336 330 328 335 331 321 316 309 303 297 293 280 274 238 204 194 195 198 185 182 193 186 192 184 186 191 198 184 194 206 217 232 232 213
16 98 340 322 63 328 35 307 357 313 333 346 356 350 339 331 334 335 339 337 329 320 306 305 302 292 280 269 236 214 192 194 194 183 185 195 195 196 192 188 199 188 186 188 202 220 204 239 252
228 53 306 266 288 325 312 261 308 346 360 355 1 346 345 344 338 343 341 346 334 331 322 313 307 301 289 268 231 214 199 192 196 196 186 200 195 195 197 181 185 173 169 194 197 217 217 224 234
129 168 238 265 286 348 293 294 309 342 11 12 5 360 349 346 342 349 338 341 338 336 334 327 318 311 295 269 224 216 213 196 188 192 192 190 198 189 194 183 179 176 189 199 193 191 225 257 228
132 100 283 285 277 225 323 298 294 329 358 28 13 357 352 345 346 345 345 347 343 338 335 332 321 317 301 297 239 214 185 205 197 198 181 188 191 197 191 189 185 184 184 188 189 187 205 229 196
181 166 231 241 333 10 332 311 324 285 359 18 15 13 355 353 342 345 349 344 344 348 337 332 325 318 304 299 289 129 109 199 191 193 179 181 199 208 181 187 176 171 181 197 195 189 196 227 226
314 195 168 293 32 281 52 284 299 312 317 346 358 1 335 353 351 341 342 346 349 341 339 334 328 324 318 307 270 217 174 176 147 188 179 172 188 172 155 163 180 187 166 189 181 171 176 212 212
235 162 209 264 210 55 301 76 265 341 328 322 328 353 319 333 335 336 338 338 340 345 343 338 339 351 15 31 12 237 184 126 69 90 96 120 84 90 111 116 147 187 155 112 99 95 79 51 47
347 92 39 44 67 12 237 122 281 220 215 294 321 336 335 331 345 343 341 342 342 343 349 349 350 9 25 39 41 40 62 96 86 73 81 66 66 64 65 79 68 68 74 82 64 71 64 70 66
77 59 335 351 8 230 157 61 245 220 213 203 308 328 329 335 351 342 350 345 346 345 345 347 0 12 18 40 45 49 67 76 76 83 83 82 72 63 60 61 64 66 65 67 79 72 81 68 76
88 138 151 244 275 286 109 229 256 201 160 167 134 301 333 350 344 336 345 341 343 346 348 351 354 16 20 32 39 42 53 68 70 62 85 69 73 71 65 62 61 52 46 57 48 50 51 59 56
159 138 164 107 32 358 244 282 288 157 211 185 186 306 328 333 334 337 343 336 339 347 347 349 352 6 33 38 40 40 44 49 61 61 70 69 70 79 68 67 64 49 42 43 51 44 40 49 41
155 153 66 4 29 289 284 272 240 214 220 215 225 213 258 309 333 341 344 341 345 343 345 5 1 8 16 36 41 39 38 42 54 60 59 54 52 58 60 63 66 69 63 56 56 55 40 63 45
127 187 94 145 161 214 301 263 215 208 194 194 208 203 202 234 307 327 343 349 344 350 8 5 11 18 24 27 34 47 49 50 53 56 57 62 69 71 68 66 65 56 54 49 53 49 39 52 42
211 206 156 135 231 246 143 273 318 224 193 170 189 196 189 191 244 309 343 348 355 4 11 19 7 25 23 20 41 41 40 45 54 52 53 61 60 55 58 59 62 57 54 50 55 56 46 47 40